Regional Weather Roundup
Issued by NWS

Home | Current Version | Previous Version | Graphics & Text | Print | Product List | Glossary On
Versions: 1 2 3 4 5 6 7 8 9 10 11 12 13 14 15 16 17 18 19 20 21 22 23 24 25 26 27 28 29 30 31 32 33 34 35 36 37 38 39 40 41 42 43 44 45 46 47 48 49 50
000
ASUS45 KSLC 290410
RWRUT

UTAH REGIONAL WEATHER ROUNDUP
NATIONAL WEATHER SERVICE SALT LAKE CITY UT
1000 PM MDT THU MAY 28 2015

UTZ001>011-023>025-290500-

NORTHERN UTAH

CITY           SKY/WX    TMP DP  RH WIND       PRES   REMARKS
BRIGHAM CITY   CLEAR     61  46  56 CALM      30.15R
HILL AFB       CLEAR     57  41  56 E7        30.15R
LOGAN          CLEAR     54  47  77 CALM      30.17R
OGDEN          CLEAR     59  45  59 NE7       30.13R
PROVO AIRPORT  CLEAR     61  45  55 NW9       30.14R
SALT LAKE CITY PTCLDY    62  46  55 N6        30.12R
VERNAL         CLEAR     52  41  66 N6        30.18R
WENDOVER       PTCLDY    64  50  59 NE6       30.12R
HEBER CITY     CLEAR     54  37  54 N3        30.18R
WEST JORDAN    CLEAR     61  43  51 W7        30.15R

$$

UTZ012>022-026-027-290500-

SOUTHERN/CENTRAL UTAH

CITY           SKY/WX    TMP DP  RH WIND       PRES   REMARKS
BLANDING       CLOUDY    59  40  49 N6        30.22S
BRYCE CANYON   LGT RAIN  49  41  74 N10       30.31R
CEDAR CITY     MOCLDY    62  39  42 E10       30.15F
DELTA          CLEAR     57  42  57 S7        30.13R
HANKSVILLE     PTCLDY    66  36  32 CALM      30.11R
MILFORD        MOCLDY    59  51  75 SE8       30.14R
MOAB/CYNLANDS  PTCLDY    63  40  42 NE14      30.09R
PRICE          CLEAR     56  39  53 N8        30.18R
ST GEORGE      CLEAR     79  43  27 NE30G38   29.96R
KANAB          PTCLDY    66  39  37 NW12      30.12R

$$

REGIONAL REPORTS     COLORADO/ARIZONA

CITY           SKY/WX    TMP DP  RH WIND       PRES   REMARKS
CRAIG, CO      CLOUDY    47  41  80 NE3       30.23R
GRAND JUNCTION MOCLDY    55  47  74 NE10      30.15F
RIFLE          LGT RAIN  55  39  54 W5        30.22R
MONTROSE       MOCLDY    52  41  66 SE14      30.20R
CORTEZ         PTCLDY    57  41  55 NW9       30.19R
PAGE, AZ       PTCLDY    75  39  27 NW7       30.05R
GRAND CANYON   CLEAR     52  36  54 CALM      30.19R
KINGMAN        CLOUDY    76  20  12 S10       29.98R
FLAGSTAFF      PTCLDY    51  24  34 CALM      30.23R

$$

REGIONAL REPORTS    NEVADA/IDAHO/WYOMING

CITY           SKY/WX    TMP DP  RH WIND       PRES   REMARKS
LAS VEGAS, NV  CLOUDY    90  27  10 S12       29.82R
ELY            PTCLDY    56  42  59 SE7       30.17R
ELKO           CLEAR     62  43  49 E7        30.13R
POCATELLO, ID  PTCLDY    57  50  77 CALM      30.18R
BURLEY         CLOUDY    61  47  59 E13       30.13R
EVANSTON, WY   CLEAR     49  37  63 NE3       30.26R
ROCK SPRINGS   MOCLDY    46  39  76 W12       30.22R
KEMMERER       PTCLDY    41  36  81 N8        30.26R

$$


USA.gov is the U.S. government's official web portal to all federal, state and local government web resources and services.